Theta_e
341 342 349 350 352 352 351 350 346 348 349 350 349 348 347 344 341 342 345 346 344 346 343 340 340 341 343 344 346 346 347 347 347 345 343 345 346 348 344 345 347 348 346
337 347 351 351 352 351 351 349 346 348 349 349 347 346 346 344 342 342 344 345 345 343 341 340 339 339 340 341 344 345 345 344 344 345 346 346 345 346 347 344 346 348 347
335 348 352 349 351 351 351 349 347 349 348 348 346 344 342 346 343 342 344 345 344 341 339 339 339 339 339 340 341 341 341 343 343 343 344 345 347 347 347 346 345 346 347
341 348 351 349 349 350 350 350 349 348 348 347 345 343 340 344 344 342 344 345 343 341 339 338 338 338 339 340 340 339 338 341 342 343 345 344 345 346 347 346 346 346 346
345 348 351 349 348 349 350 349 348 348 348 346 344 342 340 339 346 344 343 344 342 340 339 337 336 336 338 339 340 339 340 338 339 342 342 343 344 345 345 346 345 344 343
345 346 350 347 347 348 350 349 348 347 347 344 342 340 339 338 345 343 343 343 342 339 337 336 334 334 334 336 337 338 341 337 338 338 341 342 343 344 344 343 342 338 337
347 347 350 346 349 349 348 348 348 347 345 343 341 339 338 339 345 342 341 342 341 339 337 335 333 332 331 332 334 336 337 337 337 336 339 340 341 342 343 342 342 343 339
346 348 349 347 347 346 348 348 347 346 344 341 339 338 339 345 342 342 341 341 340 338 335 333 332 330 330 331 332 333 334 334 334 335 336 338 338 340 342 342 341 341 341
342 342 345 347 346 346 347 346 346 344 341 340 338 339 343 343 340 342 341 340 340 335 332 331 330 329 329 329 325 329 329 330 331 333 333 334 336 337 339 339 340 340 340
341 341 345 347 346 346 346 344 343 340 340 339 338 339 342 340 340 340 337 339 338 334 330 328 328 328 328 326 322 325 327 328 329 329 329 330 332 333 335 336 337 337 338
340 343 345 346 345 344 343 344 341 339 337 336 339 340 338 339 338 338 336 337 334 331 328 327 327 326 324 318 324 325 327 326 327 327 327 328 329 329 329 330 331 332 334
340 341 344 346 344 342 342 343 339 337 334 339 340 339 340 337 336 336 334 335 332 328 327 327 319 320 321 323 326 327 325 326 325 325 326 326 326 326 325 325 325 326 326
343 343 345 346 345 341 338 338 332 331 334 340 340 337 334 335 332 331 330 332 329 326 322 319 322 323 322 323 326 325 324 325 324 323 324 324 324 324 324 323 323 323 323
340 340 344 343 343 337 336 332 330 331 340 340 339 336 334 332 328 328 327 329 327 319 315 315 319 322 322 322 323 322 323 324 321 321 322 323 324 323 323 322 321 321 321
342 343 343 342 339 336 333 330 331 340 341 339 339 335 333 329 326 325 324 325 323 314 312 314 317 319 320 321 320 319 320 320 319 320 321 321 322 322 322 321 320 319 319
341 342 341 340 340 335 331 330 337 342 339 338 337 335 330 327 325 324 323 319 317 312 312 313 313 314 315 316 316 316 316 317 317 318 318 319 319 319 319 319 319 318 317
342 340 341 340 337 335 330 332 339 341 340 339 337 333 327 325 323 322 320 315 312 312 312 312 313 313 313 313 313 313 313 314 316 317 316 315 316 316 316 316 316 316 316
341 341 340 341 336 335 331 338 339 341 339 338 336 329 324 322 321 319 316 312 312 311 312 312 312 313 313 313 312 312 312 312 312 313 314 314 313 312 309 313 315 315 314
341 341 340 340 337 336 332 338 338 339 338 337 333 325 323 320 318 315 313 312 311 311 312 312 312 312 313 312 312 312 312 312 312 311 311 312 311 312 310 305 305 307 311
342 340 340 339 337 336 333 338 337 338 337 336 329 324 321 318 314 312 312 312 311 312 312 312 313 312 312 312 311 312 312 312 312 312 311 311 311 311 311 311 310 308 305
339 338 329 339 338 336 336 338 338 338 336 334 328 325 319 315 313 312 312 311 312 312 312 312 313 313 313 312 312 313 312 312 312 312 311 310 311 310 311 310 309 308 308
340 339 338 339 338 337 338 337 337 336 336 332 328 325 317 314 312 312 311 311 312 312 313 313 313 313 313 313 313 313 315 312 311 311 311 311 310 309 309 308 308 307 307
338 340 339 339 339 337 338 336 334 335 333 329 329 326 317 312 310 310 311 311 311 313 313 313 314 314 314 313 313 313 314 314 314 311 310 310 309 309 309 308 307 306 306
333 339 339 338 339 338 337 332 333 329 327 326 324 322 317 311 309 309 309 310 311 312 313 313 313 314 314 313 312 311 311 312 315 316 311 310 310 309 309 308 307 306 305
330 335 339 336 337 337 335 332 333 331 329 327 323 321 318 311 308 308 308 308 308 308 309 309 310 310 311 312 313 312 311 311 311 312 315 312 310 309 308 307 306 306 305
331 336 337 330 328 334 332 331 331 330 329 324 319 317 316 312 308 308 309 309 308 308 308 308 309 309 309 311 311 312 312 312 312 312 313 312 312 311 308 307 306 306 305
Wind_Speed
14 22 24 23 20 20 19 18 19 16 16 15 16 15 15 14 14 13 12 13 17 18 17 16 17 17 17 18 19 21 21 21 20 24 24 25 23 24 25 25 26 27 31
21 24 26 25 21 20 19 18 18 17 16 16 14 14 14 13 13 13 12 11 16 16 17 17 17 17 17 17 18 19 20 24 25 23 21 24 24 24 24 25 25 26 29
24 25 24 25 23 22 20 21 20 17 16 16 14 14 13 13 13 12 12 14 17 17 17 17 17 17 17 17 17 19 21 23 22 24 23 22 22 24 23 24 26 28 28
23 22 23 25 24 22 21 19 19 17 16 16 13 12 12 13 13 13 13 14 17 17 17 17 17 17 17 17 18 17 22 24 22 24 24 23 22 22 23 24 26 26 27
21 21 22 25 24 22 21 19 18 17 17 15 13 11 11 12 12 13 14 14 16 16 16 17 17 17 16 16 17 18 20 18 18 22 26 24 25 24 25 26 27 28 30
20 19 24 24 22 21 20 19 18 17 17 15 12 11 11 11 10 13 14 15 16 16 16 16 16 16 16 16 17 19 18 18 21 22 23 25 26 26 26 26 28 30 31
21 21 19 22 20 21 19 18 18 18 16 13 12 11 10 11 8 15 13 16 16 16 15 15 15 16 15 15 16 20 22 20 22 21 23 24 25 27 27 27 26 27 29
21 22 20 21 21 20 20 19 19 18 15 12 12 12 12 9 14 15 13 15 16 14 14 15 16 16 14 15 16 18 15 14 17 20 21 24 25 25 28 28 29 29 28
18 18 22 19 18 20 20 20 21 18 13 13 12 13 12 13 15 16 14 14 15 14 13 13 14 15 15 15 17 19 20 19 18 21 18 20 23 22 24 27 26 27 30
19 19 18 22 19 17 16 19 19 15 13 14 15 14 14 16 15 16 14 12 14 13 13 13 14 14 15 16 21 22 21 17 18 19 17 19 20 21 22 24 25 26 26
19 21 22 23 21 21 19 16 15 14 15 16 14 18 16 13 11 11 13 11 14 13 12 13 14 15 16 20 18 16 14 15 17 18 18 20 21 21 22 23 24 24 25
18 18 21 20 21 18 19 17 15 13 16 16 16 16 14 11 10 14 13 13 13 12 13 13 18 17 15 13 10 12 15 17 19 18 19 19 21 22 23 24 25 25 25
16 14 19 20 25 23 18 15 17 17 18 19 18 17 12 12 10 10 13 12 9 11 9 12 9 8 9 9 11 13 15 17 18 18 18 19 20 21 22 23 24 25 25
20 13 20 20 22 17 15 16 17 17 17 19 21 16 14 11 13 13 12 12 9 8 10 8 8 10 11 11 12 12 13 14 16 17 17 19 19 20 21 22 23 24 25
22 26 25 24 15 17 17 17 17 13 17 23 16 14 12 11 13 12 11 11 10 9 10 9 10 11 10 10 10 12 12 14 15 15 16 18 18 19 20 20 21 22 23
17 22 25 19 18 19 18 17 15 13 18 16 15 14 12 12 13 12 12 11 10 11 11 11 10 10 10 9 10 10 11 12 13 14 13 16 17 17 18 18 19 20 20
26 26 23 24 23 19 18 18 15 16 16 17 14 13 13 13 13 13 13 12 13 12 12 11 10 10 9 9 9 9 9 10 10 12 12 12 12 16 16 15 15 16 17
26 28 28 26 26 22 21 18 20 16 20 14 13 13 14 14 13 13 13 13 13 13 12 12 10 9 9 9 9 8 8 8 9 9 9 9 8 6 9 12 12 13 13
25 28 29 28 24 23 22 18 20 18 19 16 13 13 15 14 15 14 14 14 15 14 12 11 10 9 9 8 8 7 7 7 7 7 7 6 7 6 3 6 7 8 10
24 27 30 29 26 22 19 15 18 19 23 16 14 15 17 17 16 15 14 14 15 14 12 11 10 9 8 7 7 7 5 6 5 5 6 5 5 5 4 3 4 3 5
15 24 25 26 23 27 24 20 18 20 21 16 15 16 17 18 18 15 15 16 14 13 13 12 10 8 7 7 7 5 4 5 7 7 7 6 6 5 4 4 3 2 2
17 26 44 32 33 30 27 23 19 22 16 14 13 14 16 18 18 18 19 18 16 13 12 12 11 9 8 8 7 8 4 6 7 8 8 8 7 6 6 5 3 2 2
18 23 23 28 30 30 25 25 24 24 19 14 14 13 16 18 21 18 16 14 13 11 12 11 10 9 6 7 6 4 2 3 10 9 10 9 9 8 7 7 6 5 3
16 16 17 23 25 27 26 23 27 18 15 12 20 20 19 18 24 25 23 21 15 14 11 9 10 9 4 5 6 9 9 8 2 2 11 11 9 9 8 8 7 7 5
11 10 16 8 11 21 25 22 19 14 13 13 20 20 23 25 26 25 24 21 16 11 10 9 2 2 6 11 8 5 9 10 10 9 4 8 8 8 9 9 10 9 8
7 8 10 15 6 20 25 19 14 9 8 11 14 19 22 25 27 27 28 29 22 14 11 7 8 10 13 16 13 11 9 7 9 11 7 10 8 12 11 11 11 11 11
Wind_Direction
152 159 160 161 161 156 153 152 151 141 137 133 126 118 116 111 109 104 90 83 91 86 80 76 72 69 65 63 64 62 63 61 64 60 60 64 65 63 67 66 61 56 56
156 159 156 162 161 157 154 152 149 145 140 134 128 124 119 117 111 106 93 94 89 82 81 81 77 74 71 67 65 64 65 63 64 65 59 55 59 64 62 64 66 61 57
154 159 160 164 163 161 159 156 155 150 145 137 131 127 125 124 117 111 103 94 90 86 84 83 79 74 72 69 67 71 72 67 63 62 60 62 57 61 61 63 63 63 60
155 157 163 167 164 163 163 158 156 152 148 139 135 131 130 131 129 121 111 100 97 92 86 83 80 75 72 70 66 67 78 72 65 65 58 59 59 61 64 62 64 64 64
158 158 165 166 165 165 161 161 158 153 148 141 139 135 135 142 138 132 119 115 104 96 91 86 83 79 76 72 66 68 65 72 74 65 59 60 62 62 66 69 68 67 68
156 157 163 170 167 165 162 160 158 154 150 144 143 142 142 147 143 142 122 121 111 104 95 89 85 82 78 79 79 76 60 76 68 66 61 57 61 63 68 71 70 70 69
154 166 158 171 167 166 163 162 157 152 149 147 146 145 145 145 150 131 123 126 115 106 98 93 87 84 84 86 90 88 79 71 71 76 65 61 63 64 66 70 70 71 70
159 157 166 172 171 167 164 161 155 150 151 153 152 146 144 147 140 130 128 127 117 107 101 97 93 88 82 86 97 94 83 93 80 75 66 62 63 64 64 66 68 67 67
165 167 164 174 174 170 165 163 153 153 165 157 155 150 147 142 134 126 119 124 117 109 103 101 98 95 91 86 97 95 80 76 76 73 71 65 64 66 67 66 67 68 66
172 166 165 169 171 169 168 163 162 168 168 164 157 153 149 132 131 131 122 123 114 110 105 103 102 100 98 95 100 96 91 81 81 77 75 77 72 71 71 68 66 66 67
184 170 169 169 169 169 165 170 167 175 170 163 164 163 149 137 132 140 139 128 115 109 106 107 106 109 103 101 99 94 81 85 82 81 81 79 78 76 74 72 72 68 66
188 173 164 175 171 174 186 166 181 181 173 172 165 160 150 146 148 139 132 132 116 112 111 114 106 99 100 104 90 84 96 91 85 84 84 82 80 80 78 76 74 72 70
194 166 167 184 187 174 184 172 184 179 180 184 170 173 159 156 144 137 141 144 130 123 121 120 106 124 117 105 100 97 96 92 90 87 87 85 82 80 77 77 75 73 71
188 217 177 192 207 186 181 190 184 183 174 179 181 174 161 158 162 156 154 158 150 148 139 134 129 125 119 117 112 108 103 100 98 93 89 86 84 82 81 76 75 73 71
182 192 205 187 204 187 189 194 188 165 174 173 186 161 169 168 169 162 159 159 158 151 147 140 136 126 123 116 112 109 108 107 103 99 95 93 90 86 80 76 75 73 70
217 211 195 185 199 191 194 196 177 175 173 177 161 173 174 173 173 168 164 160 159 160 151 147 141 130 124 121 113 109 108 108 112 115 109 104 98 89 85 81 76 74 73
205 207 196 194 189 194 198 193 185 181 173 169 171 174 176 173 174 169 169 164 165 163 157 152 146 140 126 123 121 115 116 114 117 118 116 111 105 104 92 82 77 74 69
218 200 192 200 185 195 196 177 186 184 178 172 177 176 175 175 172 170 171 166 165 163 160 156 153 148 145 139 136 129 129 126 128 127 131 128 118 94 90 91 80 73 70
216 202 189 197 189 188 189 184 187 182 175 178 181 178 175 175 173 169 173 167 166 164 166 165 164 163 158 157 149 148 143 142 145 141 134 134 143 128 120 94 78 82 68
210 213 202 183 181 185 187 177 190 180 187 187 182 180 177 173 174 168 170 171 168 169 169 171 172 174 172 169 164 157 160 163 168 176 165 170 162 152 152 139 56 26 65
207 238 229 170 177 176 169 175 182 184 182 184 183 184 178 172 170 170 173 172 171 177 176 178 178 181 180 178 164 169 187 202 199 202 196 200 195 196 203 196 153 178 356
199 193 206 181 183 186 170 172 175 172 169 171 179 172 176 173 167 168 171 172 173 181 183 188 177 179 187 194 202 198 195 199 227 224 219 218 219 220 217 218 197 173 140
198 205 194 183 186 180 172 162 170 168 156 147 167 172 177 179 171 166 167 172 178 184 186 191 180 192 187 213 244 279 246 256 171 194 219 223 224 221 226 225 216 201 205
214 199 210 201 193 183 160 150 159 154 153 175 170 185 177 176 180 180 175 172 162 165 166 178 188 197 229 218 242 246 266 290 307 174 202 216 223 230 227 231 233 230 240
237 202 190 178 234 171 148 165 157 141 161 192 198 199 190 189 188 183 182 181 182 180 177 166 152 260 249 261 247 260 255 269 274 281 279 197 208 229 233 237 251 245 249
214 145 134 160 162 149 143 146 164 182 179 180 198 202 201 198 191 185 190 195 188 183 175 210 222 243 267 272 260 244 236 247 248 243 254 280 236 233 214 230 245 251 260